Language: 


Des rapports , des résumés tant et plus, au choix de chacun....


Données Historiques de Météogheer
Journalier Rapport pour Février 19, 2018 Unitée:  Métrique    Impériale   Les deux
Suivant Jour »
Journalier Hebdomadaire Mensuel Annuel Sur mesure
  Max: Min: Moyenne:
Température: 4.1 °C 0.8 °C 2.7 °C
Point de rosée: 4.0 °C 0.0 °C 2.2 °C
Humidité: 98% 82% 95%
Vent: 16.6km/h 0.0km/h 4.7km/h
Rafales: 31.4km/h - -
Vent- - South
Pression: 1020.9 hPa 1014.1 hPa -
Pluie: 2.5 mm    
Historical Graphs
 
 
Données tabulaires pour Février 19, 2018
Heure Température Point de rosée Pression Vent Vent Rafales Humidité Pluie Taux (Horaire) Conditions
00:02 3.0 °C 1.0 °C 1020.9 hPa Calm   11.1 km/h 82% 0.0 mm
00:07 3.0 °C 1.0 °C 1020.9 hPa Calm   11.1 km/h 82% 0.0 mm
00:12 2.9 °C 1.0 °C 1020.9 hPa SSE 6.9 km/h 6.9 km/h 83% 0.0 mm
00:17 2.9 °C 1.0 °C 1020.9 hPa Calm   10.5 km/h 83% 0.0 mm
00:22 2.8 °C 1.0 °C 1020.9 hPa SSE 10.5 km/h 10.5 km/h 83% 0.0 mm
00:27 2.8 °C 1.0 °C 1020.9 hPa Calm   10.5 km/h 83% 0.0 mm
00:32 2.8 °C 1.0 °C 1020.9 hPa Calm   10.1 km/h 83% 0.0 mm
00:37 2.7 °C 0.0 °C 1020.9 hPa Calm   9.3 km/h 83% 0.0 mm
00:42 2.7 °C 0.0 °C 1020.9 hPa South 6.9 km/h 9.3 km/h 83% 0.0 mm
00:47 2.7 °C 0.0 °C 1020.9 hPa Calm   9.3 km/h 83% 0.0 mm
00:52 2.6 °C 0.0 °C 1020.9 hPa Calm   8.7 km/h 83% 0.0 mm
00:57 2.6 °C 0.0 °C 1020.9 hPa Calm   6.4 km/h 83% 0.0 mm
01:02 2.6 °C 0.0 °C 1020.9 hPa Calm   6.4 km/h 83% 0.0 mm
01:07 2.5 °C 0.0 °C 1020.9 hPa SE 6.4 km/h 31.4 km/h 83% 0.0 mm
01:12 2.4 °C 0.0 °C 1020.9 hPa Calm   31.4 km/h 83% 0.0 mm
01:17 2.4 °C 0.0 °C 1020.9 hPa South 4.0 km/h 7.9 km/h 83% 0.0 mm
01:22 2.3 °C 0.0 °C 1020.9 hPa South 4.0 km/h 6.4 km/h 83% 0.0 mm
01:27 2.2 °C 0.0 °C 1020.9 hPa Calm   7.2 km/h 83% 0.0 mm
01:32 2.1 °C 0.0 °C 1020.9 hPa Calm   7.2 km/h 84% 0.0 mm
01:37 2.1 °C 0.0 °C 1020.9 hPa Calm   4.3 km/h 84% 0.0 mm
01:42 2.1 °C 0.0 °C 1020.9 hPa Calm   6.4 km/h 84% 0.0 mm
01:48 2.0 °C 0.0 °C 1019.9 hPa South 4.0 km/h 8.7 km/h 85% 0.0 mm
01:53 2.0 °C 0.0 °C 1019.9 hPa SSW 4.7 km/h 8.7 km/h 85% 0.0 mm
01:58 1.9 °C 0.0 °C 1019.9 hPa South 2.1 km/h 6.9 km/h 86% 0.0 mm
02:03 1.9 °C 0.0 °C 1019.9 hPa South 5.0 km/h 6.9 km/h 86% 0.0 mm
02:08 1.9 °C 0.0 °C 1019.9 hPa SSE 5.0 km/h 8.7 km/h 86% 0.0 mm
02:13 1.9 °C 0.0 °C 1019.9 hPa Calm   9.3 km/h 86% 0.0 mm
02:18 1.9 °C 0.0 °C 1019.9 hPa Calm   9.3 km/h 86% 0.0 mm
02:23 1.9 °C 0.0 °C 1019.9 hPa SSW 3.5 km/h 6.9 km/h 86% 0.0 mm
02:28 1.8 °C 0.0 °C 1019.9 hPa SSW 6.1 km/h 11.1 km/h 87% 0.0 mm
02:33 1.8 °C 0.0 °C 1019.9 hPa Calm   11.1 km/h 87% 0.0 mm
02:38 1.8 °C 0.0 °C 1019.9 hPa SSE 5.5 km/h 7.9 km/h 87% 0.0 mm
02:43 1.8 °C 0.0 °C 1019.9 hPa SSW 4.3 km/h 9.3 km/h 87% 0.0 mm
02:48 1.8 °C 0.0 °C 1019.9 hPa South 1.8 km/h 13.0 km/h 87% 0.0 mm
02:53 1.8 °C 0.0 °C 1019.9 hPa South 10.1 km/h 13.0 km/h 87% 0.0 mm
02:58 1.7 °C 0.0 °C 1019.9 hPa Calm   12.2 km/h 87% 0.0 mm
03:03 1.7 °C 0.0 °C 1018.8 hPa South 2.6 km/h 12.2 km/h 88% 0.0 mm
03:08 1.7 °C 0.0 °C 1018.8 hPa Calm   9.3 km/h 88% 0.0 mm
03:13 1.7 °C 0.0 °C 1018.8 hPa South 4.7 km/h 9.0 km/h 88% 0.0 mm
03:18 1.7 °C 0.0 °C 1018.8 hPa South 1.8 km/h 9.0 km/h 88% 0.0 mm
03:23 1.6 °C 0.0 °C 1018.8 hPa Calm   9.0 km/h 88% 0.0 mm
03:28 1.6 °C 0.0 °C 1018.8 hPa South 4.3 km/h 9.7 km/h 88% 0.0 mm
03:33 1.6 °C 0.0 °C 1018.8 hPa SSE 4.7 km/h 11.9 km/h 88% 0.0 mm
03:38 1.5 °C 0.0 °C 1018.8 hPa Calm   13.0 km/h 89% 0.0 mm
03:43 1.5 °C 0.0 °C 1018.8 hPa SSE 6.4 km/h 13.7 km/h 89% 0.0 mm
03:49 1.4 °C 0.0 °C 1018.8 hPa SSW 7.2 km/h 13.7 km/h 89% 0.0 mm
03:54 1.4 °C 0.0 °C 1018.8 hPa SSW 4.7 km/h 12.2 km/h 89% 0.0 mm
03:59 1.4 °C 0.0 °C 1018.8 hPa Calm   13.0 km/h 89% 0.0 mm
04:04 1.3 °C 0.0 °C 1018.8 hPa South 7.6 km/h 13.0 km/h 90% 0.0 mm
04:09 1.3 °C 0.0 °C 1018.8 hPa Calm   10.5 km/h 90% 0.0 mm
04:14 1.3 °C 0.0 °C 1018.8 hPa SSW 5.8 km/h 15.1 km/h 90% 0.0 mm
04:19 1.2 °C 0.0 °C 1018.8 hPa SSW 9.0 km/h 15.1 km/h 90% 0.0 mm
04:24 1.2 °C 0.0 °C 1018.8 hPa South 6.9 km/h 9.3 km/h 91% 0.0 mm
04:29 1.2 °C 0.0 °C 1018.8 hPa South 1.4 km/h 12.2 km/h 91% 0.0 mm
04:34 1.1 °C 0.0 °C 1018.8 hPa South 4.0 km/h 13.0 km/h 91% 0.0 mm
04:39 1.1 °C 0.0 °C 1018.8 hPa SSW 6.9 km/h 13.0 km/h 91% 0.0 mm
04:44 1.1 °C 0.0 °C 1018.8 hPa Calm   9.7 km/h 91% 0.0 mm
04:49 1.1 °C 0.0 °C 1018.8 hPa Calm   10.1 km/h 91% 0.0 mm
04:54 1.1 °C 0.0 °C 1018.8 hPa Calm   10.5 km/h 92% 0.0 mm
04:59 1.0 °C 0.0 °C 1018.8 hPa South 5.8 km/h 10.5 km/h 92% 0.0 mm
05:04 1.0 °C 0.0 °C 1018.8 hPa South 6.1 km/h 11.9 km/h 92% 0.0 mm
05:09 1.0 °C 0.0 °C 1018.8 hPa SSW 9.3 km/h 12.6 km/h 93% 0.0 mm
05:14 1.0 °C 0.0 °C 1018.8 hPa South 9.3 km/h 12.6 km/h 93% 0.0 mm
05:19 1.0 °C 0.0 °C 1018.8 hPa SSE 5.0 km/h 11.6 km/h 93% 0.0 mm
05:24 1.0 °C 0.0 °C 1018.8 hPa South 9.7 km/h 12.6 km/h 93% 0.0 mm
05:29 1.0 °C 0.0 °C 1018.8 hPa SSW 5.8 km/h 12.6 km/h 93% 0.0 mm
05:34 0.9 °C 0.0 °C 1018.8 hPa SSE 10.1 km/h 14.0 km/h 94% 0.0 mm
05:39 0.9 °C 0.0 °C 1018.8 hPa SSE 9.7 km/h 14.0 km/h 94% 0.0 mm
05:44 0.9 °C 0.0 °C 1018.2 hPa SSW 5.0 km/h 12.2 km/h 94% 0.0 mm
05:50 0.9 °C 0.0 °C 1018.2 hPa Calm   10.8 km/h 94% 0.0 mm
05:55 0.9 °C 0.0 °C 1018.2 hPa SSE 9.7 km/h 10.1 km/h 94% 0.0 mm
06:00 0.9 °C 0.0 °C 1018.2 hPa South 7.9 km/h 14.8 km/h 94% 0.0 mm
06:05 0.9 °C 0.0 °C 1018.2 hPa SW 6.9 km/h 14.8 km/h 94% 0.0 mm
06:10 0.8 °C 0.0 °C 1018.2 hPa SSE 6.4 km/h 11.9 km/h 94% 0.0 mm
06:15 0.8 °C 0.0 °C 1018.8 hPa SSE 6.9 km/h 12.2 km/h 94% 0.0 mm
06:20 0.8 °C 0.0 °C 1018.8 hPa South 3.2 km/h 13.0 km/h 94% 0.0 mm
06:25 0.9 °C 0.0 °C 1018.8 hPa SSW 9.0 km/h 13.0 km/h 94% 0.0 mm
06:30 0.9 °C 0.0 °C 1018.2 hPa Calm   11.6 km/h 94% 0.0 mm
06:35 0.9 °C 0.0 °C 1018.2 hPa Calm   10.1 km/h 94% 0.0 mm
06:40 0.9 °C 0.0 °C 1018.2 hPa Calm   7.6 km/h 94% 0.0 mm
06:45 0.9 °C 0.0 °C 1018.2 hPa South 10.5 km/h 14.0 km/h 94% 0.0 mm
06:50 0.9 °C 0.0 °C 1018.2 hPa South 9.7 km/h 14.0 km/h 94% 0.0 mm
06:55 0.9 °C 0.0 °C 1018.2 hPa Calm   12.2 km/h 94% 0.0 mm
07:00 0.9 °C 0.0 °C 1018.2 hPa South 1.8 km/h 11.9 km/h 94% 0.0 mm
07:05 0.9 °C 0.0 °C 1018.2 hPa South 2.1 km/h 11.9 km/h 94% 0.0 mm
07:10 0.9 °C 0.0 °C 1018.2 hPa SSW 9.3 km/h 10.5 km/h 94% 0.0 mm
07:15 0.9 °C 0.0 °C 1018.2 hPa South 5.0 km/h 10.5 km/h 94% 0.0 mm
07:20 0.9 °C 0.0 °C 1018.2 hPa SSE 7.6 km/h 10.1 km/h 94% 0.0 mm
07:25 0.9 °C 0.0 °C 1018.2 hPa Calm   9.7 km/h 94% 0.0 mm
07:30 0.9 °C 0.0 °C 1018.8 hPa South 9.3 km/h 9.7 km/h 94% 0.0 mm
07:35 0.9 °C 0.0 °C 1018.8 hPa Calm   11.6 km/h 94% 0.0 mm
07:40 0.9 °C 0.0 °C 1018.8 hPa SSE 8.7 km/h 11.9 km/h 94% 0.0 mm
07:45 0.9 °C 0.0 °C 1018.2 hPa SSW 10.1 km/h 11.9 km/h 94% 0.0 mm
07:50 0.9 °C 0.0 °C 1018.2 hPa South 8.7 km/h 12.2 km/h 94% 0.0 mm
07:55 1.0 °C 0.0 °C 1018.2 hPa South 9.7 km/h 17.2 km/h 94% 0.0 mm
08:01 1.0 °C 0.0 °C 1018.2 hPa South 8.7 km/h 17.2 km/h 94% 0.0 mm
08:06 1.0 °C 0.0 °C 1018.2 hPa South 9.3 km/h 12.6 km/h 94% 0.0 mm
08:11 1.0 °C 0.0 °C 1018.2 hPa South 9.3 km/h 13.0 km/h 94% 0.0 mm
08:16 1.0 °C 1.0 °C 1018.2 hPa Calm   13.0 km/h 95% 0.0 mm
08:21 1.0 °C 1.0 °C 1018.2 hPa South 9.3 km/h 9.3 km/h 95% 0.0 mm
08:26 1.0 °C 1.0 °C 1018.2 hPa WSW 2.6 km/h 10.1 km/h 95% 0.0 mm
08:31 1.0 °C 1.0 °C 1018.2 hPa South 6.1 km/h 10.1 km/h 95% 0.0 mm
08:36 1.0 °C 1.0 °C 1018.2 hPa South 5.8 km/h 13.7 km/h 95% 0.0 mm
08:41 1.1 °C 1.0 °C 1018.2 hPa SSE 6.9 km/h 15.4 km/h 95% 0.0 mm
08:46 1.1 °C 1.0 °C 1018.2 hPa South 6.4 km/h 16.6 km/h 95% 0.0 mm
08:51 1.1 °C 1.0 °C 1018.2 hPa South 6.9 km/h 16.6 km/h 95% 0.0 mm
08:56 1.2 °C 1.0 °C 1018.2 hPa South 6.9 km/h 10.5 km/h 96% 0.0 mm
09:01 1.3 °C 1.0 °C 1018.2 hPa SSW 6.4 km/h 11.6 km/h 96% 0.0 mm
09:06 1.3 °C 1.0 °C 1018.2 hPa SSE 1.4 km/h 11.9 km/h 96% 0.0 mm
09:11 1.3 °C 1.0 °C 1018.2 hPa SSW 5.5 km/h 11.9 km/h 96% 0.0 mm
09:16 1.4 °C 1.0 °C 1018.2 hPa South 9.0 km/h 12.2 km/h 96% 0.0 mm
09:21 1.4 °C 1.0 °C 1018.2 hPa South 7.2 km/h 12.6 km/h 96% 0.0 mm
09:26 1.4 °C 1.0 °C 1018.2 hPa SSE 9.7 km/h 12.6 km/h 96% 0.0 mm
09:31 1.4 °C 1.0 °C 1018.2 hPa South 10.8 km/h 13.0 km/h 96% 0.0 mm
09:36 1.5 °C 1.0 °C 1018.2 hPa Calm   13.0 km/h 96% 0.0 mm
09:41 1.6 °C 1.0 °C 1018.2 hPa South 6.4 km/h 14.0 km/h 96% 0.0 mm
09:46 1.6 °C 1.0 °C 1018.8 hPa SSW 10.5 km/h 14.0 km/h 96% 0.0 mm
09:51 1.6 °C 1.0 °C 1018.8 hPa Calm   19.5 km/h 96% 0.0 mm
09:56 1.6 °C 1.0 °C 1018.8 hPa South 3.5 km/h 19.5 km/h 95% 0.0 mm
10:01 1.7 °C 1.0 °C 1018.2 hPa South 7.9 km/h 13.0 km/h 95% 0.0 mm
10:06 1.7 °C 1.0 °C 1018.2 hPa SSE 9.3 km/h 12.6 km/h 96% 0.0 mm
10:11 1.8 °C 1.0 °C 1018.2 hPa Calm   12.6 km/h 96% 0.0 mm
10:13 1.9 °C 2.0 °C 1018.2 hPa SSW 13.7 km/h 13.7 km/h 96% 0.0 mm
10:18 1.8 °C 1.0 °C 1018.2 hPa Calm   13.7 km/h 95% 0.0 mm
10:23 1.8 °C 1.0 °C 1018.2 hPa South 5.5 km/h 14.0 km/h 95% 0.0 mm
10:28 1.9 °C 1.0 °C 1018.8 hPa SE 13.7 km/h 14.0 km/h 95% 0.0 mm
10:34 1.9 °C 1.0 °C 1018.8 hPa SSE 7.2 km/h 14.0 km/h 95% 0.0 mm
10:39 1.9 °C 1.0 °C 1018.8 hPa SSW 10.5 km/h 14.0 km/h 95% 0.0 mm
10:44 1.9 °C 1.0 °C 1018.2 hPa South 5.5 km/h 13.7 km/h 95% 0.0 mm
10:49 2.0 °C 2.0 °C 1018.2 hPa SW 8.7 km/h 13.7 km/h 95% 0.0 mm
10:54 2.0 °C 2.0 °C 1018.2 hPa SSE 9.3 km/h 12.2 km/h 95% 0.0 mm
10:59 2.1 °C 2.0 °C 1018.2 hPa South 7.9 km/h 13.7 km/h 95% 0.0 mm
11:04 2.1 °C 2.0 °C 1018.2 hPa South 9.0 km/h 13.7 km/h 96% 0.0 mm
11:09 2.2 °C 2.0 °C 1018.2 hPa SSE 9.0 km/h 13.7 km/h 96% 0.3 mm
11:14 2.2 °C 2.0 °C 1018.2 hPa South 12.2 km/h 14.3 km/h 96% 0.3 mm
11:19 2.3 °C 2.0 °C 1018.2 hPa South 6.9 km/h 14.3 km/h 96% 0.3 mm
11:24 2.4 °C 2.0 °C 1018.2 hPa South 6.4 km/h 14.0 km/h 96% 0.3 mm
11:29 2.4 °C 2.0 °C 1018.2 hPa SSE 12.6 km/h 13.7 km/h 97% 0.3 mm
11:34 2.4 °C 2.0 °C 1018.2 hPa SSW 9.7 km/h 15.8 km/h 97% 0.3 mm
11:39 2.5 °C 3.0 °C 1018.2 hPa SSE 15.1 km/h 15.8 km/h 97% 0.3 mm
11:44 2.6 °C 3.0 °C 1018.2 hPa South 9.0 km/h 15.1 km/h 97% 0.3 mm
11:49 2.5 °C 3.0 °C 1018.2 hPa South 13.7 km/h 15.1 km/h 97% 0.3 mm
11:54 2.6 °C 3.0 °C 1018.2 hPa SSW 11.9 km/h 15.8 km/h 97% 0.3 mm
11:59 2.6 °C 3.0 °C 1018.2 hPa SSE 10.5 km/h 15.8 km/h 97% 0.3 mm
12:04 2.7 °C 3.0 °C 1018.2 hPa South 8.7 km/h 13.7 km/h 97% 0.3 mm
12:09 2.7 °C 3.0 °C 1018.2 hPa SSW 10.5 km/h 14.0 km/h 97% 0.0 mm
12:14 2.8 °C 3.0 °C 1016.8 hPa SSW 7.9 km/h 14.0 km/h 97% 0.0 mm
12:20 2.8 °C 3.0 °C 1016.8 hPa South 1.8 km/h 16.6 km/h 97% 0.0 mm
12:25 2.8 °C 3.0 °C 1016.8 hPa South 10.1 km/h 16.6 km/h 97% 0.0 mm
12:30 2.8 °C 3.0 °C 1016.8 hPa South 6.9 km/h 14.3 km/h 97% 0.0 mm
12:35 3.0 °C 3.0 °C 1016.8 hPa SSW 9.0 km/h 14.3 km/h 97% 0.0 mm
12:40 3.0 °C 3.0 °C 1016.8 hPa SSE 4.7 km/h 14.0 km/h 97% 0.0 mm
12:45 3.1 °C 3.0 °C 1016.8 hPa SSE 6.4 km/h 14.0 km/h 97% 0.0 mm
12:50 3.1 °C 3.0 °C 1016.8 hPa South 14.0 km/h 14.0 km/h 97% 0.0 mm
12:55 3.1 °C 3.0 °C 1016.8 hPa South 6.1 km/h 15.8 km/h 97% 0.0 mm
13:00 3.2 °C 3.0 °C 1016.8 hPa South 16.6 km/h 16.6 km/h 97% 0.3 mm
13:05 3.2 °C 3.0 °C 1016.8 hPa South 7.9 km/h 16.6 km/h 97% 0.3 mm
13:10 3.3 °C 3.0 °C 1016.8 hPa SSW 8.7 km/h 13.7 km/h 98% 0.3 mm
13:15 3.4 °C 3.0 °C 1016.8 hPa South 15.4 km/h 15.4 km/h 98% 0.3 mm
13:20 3.4 °C 3.0 °C 1016.8 hPa SSE 9.3 km/h 15.4 km/h 97% 0.3 mm
13:25 3.6 °C 4.0 °C 1016.8 hPa SSE 11.6 km/h 12.6 km/h 98% 0.3 mm
13:30 3.7 °C 4.0 °C 1016.8 hPa South 4.3 km/h 12.6 km/h 98% 0.3 mm
13:35 3.7 °C 4.0 °C 1016.8 hPa SSW 9.3 km/h 15.8 km/h 98% 0.3 mm
13:40 3.7 °C 4.0 °C 1016.8 hPa SSE 4.3 km/h 15.8 km/h 98% 0.3 mm
13:45 3.7 °C 4.0 °C 1016.1 hPa South 5.5 km/h 14.0 km/h 98% 0.5 mm
13:50 3.6 °C 4.0 °C 1016.1 hPa South 9.0 km/h 14.0 km/h 98% 0.5 mm
13:55 3.6 °C 3.0 °C 1016.1 hPa South 5.8 km/h 16.3 km/h 97% 0.3 mm
14:01 3.6 °C 3.0 °C 1016.8 hPa Calm   16.3 km/h 97% 0.3 mm
14:06 3.6 °C 4.0 °C 1016.8 hPa SSW 9.7 km/h 12.6 km/h 98% 0.3 mm
14:11 3.6 °C 4.0 °C 1016.8 hPa SSW 9.7 km/h 12.6 km/h 98% 0.3 mm
14:16 3.7 °C 4.0 °C 1016.8 hPa South 10.1 km/h 12.2 km/h 98% 0.3 mm
14:21 3.7 °C 4.0 °C 1016.8 hPa South 7.9 km/h 12.2 km/h 98% 0.3 mm
14:26 3.7 °C 4.0 °C 1016.8 hPa SSE 5.5 km/h 13.0 km/h 98% 0.3 mm
14:31 3.7 °C 4.0 °C 1016.8 hPa SSW 6.4 km/h 13.0 km/h 98% 0.3 mm
14:36 3.8 °C 4.0 °C 1016.8 hPa SSW 9.0 km/h 16.6 km/h 98% 0.8 mm
14:41 3.8 °C 4.0 °C 1016.8 hPa Calm   16.6 km/h 98% 0.8 mm
14:46 3.8 °C 4.0 °C 1016.8 hPa SSW 9.7 km/h 13.0 km/h 98% 0.3 mm
14:51 3.8 °C 4.0 °C 1016.8 hPa South 7.6 km/h 13.0 km/h 98% 0.3 mm
14:56 3.7 °C 4.0 °C 1016.8 hPa South 7.9 km/h 14.3 km/h 98% 0.3 mm
15:01 3.7 °C 4.0 °C 1016.8 hPa SSW 4.7 km/h 14.3 km/h 98% 0.3 mm
15:06 3.8 °C 4.0 °C 1016.8 hPa SSE 12.2 km/h 12.2 km/h 98% 0.3 mm
15:11 3.8 °C 4.0 °C 1016.8 hPa Calm   12.2 km/h 98% 0.3 mm
15:16 3.8 °C 4.0 °C 1016.1 hPa South 6.9 km/h 12.2 km/h 98% 0.3 mm
15:21 3.8 °C 4.0 °C 1016.1 hPa South 10.8 km/h 14.0 km/h 98% 0.8 mm
15:26 3.8 °C 4.0 °C 1016.1 hPa Calm   14.0 km/h 98% 0.8 mm
15:31 3.8 °C 4.0 °C 1016.1 hPa SSW 4.7 km/h 10.8 km/h 98% 0.3 mm
15:36 3.8 °C 4.0 °C 1016.1 hPa SSW 2.1 km/h 10.5 km/h 98% 0.3 mm
15:41 3.8 °C 4.0 °C 1016.1 hPa Calm   10.1 km/h 98% 0.3 mm
15:46 3.8 °C 4.0 °C 1016.1 hPa SSW 11.1 km/h 12.6 km/h 98% 0.3 mm
15:51 3.8 °C 4.0 °C 1016.1 hPa SSE 7.9 km/h 14.0 km/h 98% 0.3 mm
15:56 3.9 °C 4.0 °C 1016.1 hPa SSW 6.4 km/h 14.0 km/h 98% 0.3 mm
16:01 3.9 °C 4.0 °C 1016.1 hPa SSE 8.7 km/h 11.6 km/h 98% 0.3 mm
16:07 3.9 °C 4.0 °C 1016.1 hPa SSE 9.7 km/h 11.9 km/h 98% 0.3 mm
16:12 4.0 °C 4.0 °C 1016.1 hPa South 7.9 km/h 12.6 km/h 98% 0.3 mm
16:17 4.0 °C 4.0 °C 1016.1 hPa South 7.9 km/h 12.6 km/h 98% 0.0 mm
16:22 4.0 °C 4.0 °C 1016.1 hPa SSE 6.1 km/h 13.7 km/h 98% 0.0 mm
16:27 4.0 °C 4.0 °C 1016.1 hPa Calm   13.7 km/h 98% 0.0 mm
16:32 4.0 °C 4.0 °C 1015.1 hPa South 10.1 km/h 13.0 km/h 98% 0.0 mm
16:37 4.0 °C 4.0 °C 1015.1 hPa South 5.5 km/h 15.4 km/h 98% 0.3 mm
16:42 4.0 °C 4.0 °C 1015.1 hPa South 7.6 km/h 15.4 km/h 98% 0.3 mm
16:47 4.0 °C 4.0 °C 1015.1 hPa South 13.0 km/h 13.0 km/h 98% 0.3 mm
16:52 4.0 °C 4.0 °C 1015.1 hPa Calm   13.0 km/h 98% 0.3 mm
16:57 4.0 °C 4.0 °C 1015.1 hPa South 3.5 km/h 13.0 km/h 98% 0.3 mm
17:02 4.0 °C 4.0 °C 1015.1 hPa SSW 4.7 km/h 10.5 km/h 98% 0.3 mm
17:07 4.0 °C 4.0 °C 1015.1 hPa SSE 4.7 km/h 13.0 km/h 98% 0.3 mm
17:12 4.0 °C 4.0 °C 1015.1 hPa South 10.1 km/h 13.0 km/h 98% 0.3 mm
17:17 4.0 °C 4.0 °C 1015.1 hPa SSW 12.2 km/h 12.6 km/h 98% 0.3 mm
17:22 4.0 °C 4.0 °C 1015.1 hPa SW 5.5 km/h 12.6 km/h 98% 0.3 mm
17:27 4.0 °C 4.0 °C 1015.1 hPa SSE 5.0 km/h 12.2 km/h 98% 0.3 mm
17:32 4.0 °C 4.0 °C 1014.1 hPa Calm   10.1 km/h 98% 0.3 mm
17:37 4.1 °C 4.0 °C 1014.1 hPa South 10.1 km/h 10.1 km/h 98% 0.0 mm
17:42 4.0 °C 4.0 °C 1014.1 hPa South 3.5 km/h 10.1 km/h 98% 0.0 mm
17:47 4.1 °C 4.0 °C 1015.1 hPa Calm   10.1 km/h 98% 0.0 mm
17:52 4.1 °C 4.0 °C 1015.1 hPa Calm   9.0 km/h 98% 0.0 mm
17:57 4.1 °C 4.0 °C 1015.1 hPa Calm   9.0 km/h 98% 0.0 mm
18:02 4.1 °C 4.0 °C 1015.1 hPa South 4.3 km/h 6.4 km/h 98% 0.0 mm
18:07 4.1 °C 4.0 °C 1015.1 hPa Calm   7.9 km/h 98% 0.0 mm
18:13 4.0 °C 4.0 °C 1015.1 hPa SSW 9.0 km/h 9.0 km/h 98% 0.0 mm
18:18 4.0 °C 4.0 °C 1014.1 hPa Calm   9.0 km/h 98% 0.0 mm
18:23 4.0 °C 4.0 °C 1014.1 hPa Calm   9.3 km/h 98% 0.0 mm
18:28 4.0 °C 4.0 °C 1014.1 hPa South 2.1 km/h 9.3 km/h 98% 0.3 mm
18:33 4.0 °C 4.0 °C 1014.1 hPa SSW 3.5 km/h 9.3 km/h 98% 0.3 mm
18:38 4.0 °C 4.0 °C 1014.1 hPa Calm   9.0 km/h 98% 0.3 mm
18:43 4.0 °C 4.0 °C 1014.1 hPa Calm   6.9 km/h 98% 0.3 mm
18:48 4.0 °C 4.0 °C 1015.1 hPa South 8.7 km/h 8.7 km/h 98% 0.3 mm
18:53 4.0 °C 4.0 °C 1015.1 hPa Calm   8.7 km/h 98% 0.3 mm
18:58 4.0 °C 4.0 °C 1015.1 hPa Calm   7.9 km/h 98% 0.3 mm
19:03 4.0 °C 4.0 °C 1015.1 hPa Calm   7.9 km/h 98% 0.3 mm
19:08 4.0 °C 4.0 °C 1015.1 hPa Calm   5.5 km/h 98% 0.3 mm
19:13 4.0 °C 4.0 °C 1015.1 hPa Calm   9.0 km/h 98% 0.3 mm
19:18 4.0 °C 4.0 °C 1015.1 hPa SSE 4.7 km/h 9.7 km/h 98% 0.3 mm
19:23 4.0 °C 4.0 °C 1015.1 hPa Calm   9.7 km/h 98% 0.3 mm
19:28 4.0 °C 4.0 °C 1015.1 hPa South 6.1 km/h 10.5 km/h 98% 0.0 mm
19:33 4.0 °C 4.0 °C 1015.1 hPa Calm   10.5 km/h 98% 0.0 mm
19:38 4.0 °C 4.0 °C 1015.1 hPa Calm   7.9 km/h 98% 0.0 mm
19:43 4.0 °C 4.0 °C 1015.1 hPa Calm   7.9 km/h 98% 0.0 mm
19:48 4.0 °C 4.0 °C 1014.1 hPa South 6.1 km/h 7.9 km/h 98% 0.0 mm
19:53 4.0 °C 4.0 °C 1014.1 hPa Calm   7.9 km/h 98% 0.0 mm
19:58 4.0 °C 4.0 °C 1014.1 hPa SE 5.5 km/h 7.6 km/h 98% 0.0 mm
20:03 4.0 °C 4.0 °C 1015.1 hPa South 6.1 km/h 13.7 km/h 98% 0.0 mm
20:08 4.0 °C 4.0 °C 1015.1 hPa Calm   13.7 km/h 98% 0.0 mm
20:10 4.0 °C 4.0 °C 1015.1 hPa Calm   13.7 km/h 98% 0.0 mm
20:15 4.0 °C 4.0 °C 1014.1 hPa Calm   6.4 km/h 98% 0.0 mm
20:20 4.0 °C 4.0 °C 1014.1 hPa SSE 7.6 km/h 7.6 km/h 98% 0.3 mm
20:25 4.0 °C 4.0 °C 1014.1 hPa Calm   7.6 km/h 98% 0.3 mm
20:30 4.0 °C 4.0 °C 1015.1 hPa Calm   7.6 km/h 98% 0.3 mm
20:35 4.0 °C 4.0 °C 1015.1 hPa Calm   4.7 km/h 98% 0.3 mm
20:40 4.0 °C 4.0 °C 1015.1 hPa Calm   3.2 km/h 98% 0.3 mm
20:45 4.0 °C 4.0 °C 1015.1 hPa Calm   7.6 km/h 98% 0.3 mm
20:50 3.9 °C 4.0 °C 1015.1 hPa SSE 1.4 km/h 7.6 km/h 98% 0.3 mm
20:55 3.9 °C 4.0 °C 1015.1 hPa Calm   6.4 km/h 98% 0.3 mm
21:00 3.9 °C 4.0 °C 1015.1 hPa SSE 1.8 km/h 6.4 km/h 98% 0.3 mm
21:05 3.8 °C 4.0 °C 1015.1 hPa Calm   5.8 km/h 98% 0.3 mm
21:10 3.8 °C 4.0 °C 1015.1 hPa SSE 5.8 km/h 5.8 km/h 98% 0.3 mm
21:15 3.8 °C 4.0 °C 1015.1 hPa Calm   6.1 km/h 98% 0.3 mm
21:20 3.8 °C 4.0 °C 1015.1 hPa SSE 6.9 km/h 6.9 km/h 98% 0.0 mm
21:25 3.7 °C 4.0 °C 1015.1 hPa SSE 1.4 km/h 6.9 km/h 98% 0.0 mm
21:30 3.7 °C 4.0 °C 1015.1 hPa Calm   6.9 km/h 98% 0.0 mm
21:36 3.7 °C 4.0 °C 1015.1 hPa Calm   1.4 km/h 98% 0.0 mm
21:41 3.7 °C 4.0 °C 1015.1 hPa Calm     98% 0.0 mm
21:46 3.7 °C 4.0 °C 1015.1 hPa Calm     98% 0.0 mm
21:51 3.7 °C 4.0 °C 1015.1 hPa Calm     98% 0.0 mm
21:56 3.7 °C 4.0 °C 1015.1 hPa SSE 4.7 km/h 4.7 km/h 98% 0.0 mm
22:01 3.6 °C 4.0 °C 1015.1 hPa Calm   4.7 km/h 98% 0.0 mm
22:06 3.6 °C 4.0 °C 1015.1 hPa Calm   8.7 km/h 98% 0.0 mm
22:11 3.6 °C 4.0 °C 1015.1 hPa Calm   8.7 km/h 98% 0.0 mm
22:16 3.6 °C 4.0 °C 1014.1 hPa Calm   6.1 km/h 98% 0.0 mm
22:21 3.6 °C 4.0 °C 1014.1 hPa SSE 7.9 km/h 7.9 km/h 98% 0.0 mm
22:26 3.6 °C 4.0 °C 1014.1 hPa Calm   7.9 km/h 98% 0.0 mm
22:31 3.6 °C 4.0 °C 1015.1 hPa South 3.2 km/h 7.9 km/h 98% 0.0 mm
22:36 3.6 °C 4.0 °C 1015.1 hPa SSE 6.9 km/h 7.9 km/h 98% 0.0 mm
22:41 3.6 °C 4.0 °C 1015.1 hPa SSE 6.4 km/h 10.1 km/h 98% 0.0 mm
22:46 3.6 °C 4.0 °C 1015.1 hPa Calm   10.1 km/h 98% 0.0 mm
22:51 3.6 °C 4.0 °C 1015.1 hPa Calm   6.4 km/h 98% 0.0 mm
22:56 3.6 °C 4.0 °C 1015.1 hPa Calm     98% 0.0 mm
23:01 3.5 °C 4.0 °C 1015.1 hPa Calm     98% 0.0 mm
23:06 3.5 °C 4.0 °C 1015.1 hPa Calm     98% 0.0 mm
23:11 3.5 °C 4.0 °C 1015.1 hPa Calm     98% 0.0 mm
23:17 3.5 °C 4.0 °C 1015.1 hPa Calm     98% 0.0 mm
23:22 3.5 °C 4.0 °C 1015.1 hPa Calm     98% 0.0 mm
23:27 3.5 °C 4.0 °C 1015.1 hPa Calm     98% 0.0 mm
23:32 3.5 °C 4.0 °C 1015.1 hPa Calm     98% 0.0 mm
23:37 3.5 °C 4.0 °C 1015.1 hPa SSE 1.4 km/h 5.0 km/h 98% 0.0 mm
23:42 3.5 °C 4.0 °C 1015.1 hPa Calm   5.0 km/h 98% 0.0 mm
23:47 3.5 °C 4.0 °C 1014.1 hPa SE 4.3 km/h 6.9 km/h 98% 0.0 mm
23:52 3.5 °C 4.0 °C 1014.1 hPa SE 4.3 km/h 6.9 km/h 98% 0.0 mm
23:53 3.5 °C 4.0 °C 1014.1 hPa Calm   6.9 km/h 98% 0.0 mm
23:58 3.5 °C 4.0 °C 1014.1 hPa SE 5.5 km/h 5.5 km/h 98% 0.0 mm
Données Historique de Météo Turbie

Mise a jour : 20/06/2018 19:09:11
Généré par Cumulus 1.9.4 (1099)